Weather History for KIMT - December, 2012

Change the Weather History Date:

Wednesday, December 26, 2012

  Actual Average Record
Temperature  
Mean Temperature 8 °F -  
Max Temperature 21 °F - - ()
Min Temperature -5 °F - - ()
Degree Days  
Heating Degree Days 57    
Moisture  
Dew Point 11 °F    
Average Humidity 83    
Maximum Humidity 89    
Minimum Humidity 75    
Precipitation  
Precipitation 0.00 in - - ()
Sea Level Pressure  
Sea Level Pressure 30.27 in    
Wind  
Wind Speed 3 mph (NNW)    
Max Wind Speed 12 mph    
Max Gust Speed 20 mph    
Visibility 9 miles    
Events Snow    
T = Trace of Precipitation, MM = Missing Value Source: NWS Daily Summary

Daily Weather History Graph

Daily Weather History Graph

Search for Another Location

Airport or City:

Trip Planner

Search our weather history database for the weather conditions in past years. The results will help you decide how hot, cold, wet, or windy it might be!

Date:

Astronomy

Dec. 26, 2012 Rise Set
Actual Time 7:32 AM CST 4:13 PM CST
Civil Twilight 6:58 AM CST 4:48 PM CST
Nautical Twilight 6:20 AM CST 5:26 PM CST
Astronomical Twilight 5:44 AM CST 6:02 PM CST
Moon 3:08 PM CST (12/26) 5:54 AM CST (12/26)
Length of Visible Light 9h 49m
Length of Day
8h 41m
Waxing Gibbous, 97% of the Moon is Illuminated
Dec 26
Waxing Gibbous
Dec 28
Full
Jan 4
Last Quarter
Jan 11
New
Jan 18
First Quarter

Hourly Weather History & Observations

Time (CST) Temp. Windchill Dew Point Humidity Pressure Visibility Wind Dir Wind Speed Gust Speed Precip Events Conditions
12:54 AM -4.0 °F - -8.0 °F 83% 30.40 in 10.0 mi Calm Calm - N/A   Clear
1:54 AM -5.1 °F - -11.0 °F 76% 30.41 in 10.0 mi Calm Calm - N/A   Clear
2:54 AM -2.9 °F - -8.0 °F 79% 30.41 in 10.0 mi Calm Calm - N/A   Clear
5:54 AM -2.9 °F - -8.0 °F 79% 30.40 in 10.0 mi Calm Calm - N/A   Clear
6:54 AM -5.1 °F -15.8 °F -9.0 °F 83% 30.39 in 10.0 mi NW 4.6 mph - N/A   Clear
7:54 AM -4.0 °F -12.4 °F -8.0 °F 83% 30.37 in 10.0 mi North 3.5 mph - N/A   Clear
8:54 AM 1.9 °F -9.2 °F -2.9 °F 80% 30.35 in 10.0 mi NW 5.8 mph - N/A   Clear
9:54 AM 7.0 °F - 3.9 °F 87% 30.34 in 10.0 mi Calm Calm - N/A   Clear
10:54 AM 14.0 °F - 10.9 °F 88% 30.32 in 10.0 mi Calm Calm - N/A   Clear
11:28 AM 17.6 °F - 12.2 °F 79% 30.23 in 10.0 mi Calm Calm - N/A   Mostly Cloudy
11:54 AM 18.0 °F 12.7 °F 14.0 °F 84% 30.31 in 10.0 mi NW 3.5 mph - N/A   Overcast
12:54 PM 21.0 °F 16.2 °F 15.1 °F 78% 30.28 in 10.0 mi NW 3.5 mph - N/A   Overcast
1:54 PM 21.9 °F 13.4 °F 16.0 °F 78% 30.27 in 10.0 mi NW 6.9 mph - N/A   Overcast
2:54 PM 21.9 °F 12.5 °F 17.1 °F 82% 30.27 in 1.8 mi NNW 8.1 mph - 0.00 in Snow Light Snow
3:27 PM 21.2 °F 12.6 °F 17.6 °F 86% 30.18 in 2.5 mi NNW 6.9 mph - 0.00 in Snow Light Snow
3:35 PM 21.2 °F 12.6 °F 17.6 °F 86% 30.18 in 2.5 mi North 6.9 mph - 0.00 in Snow Light Snow
3:54 PM 21.9 °F 14.5 °F 18.0 °F 85% 30.27 in 4.0 mi NNW 5.8 mph - 0.00 in Snow Light Snow
4:25 PM 21.2 °F 11.7 °F 17.6 °F 86% 30.19 in 9.0 mi North 8.1 mph - 0.00 in Snow Light Snow
4:54 PM 21.9 °F 13.4 °F 18.0 °F 85% 30.27 in 9.0 mi North 6.9 mph - 0.00 in   Overcast
5:54 PM 21.9 °F 15.7 °F 17.1 °F 82% 30.27 in 10.0 mi NNW 4.6 mph - N/A   Overcast
6:07 PM 21.2 °F 14.9 °F 17.6 °F 86% 30.18 in 9.0 mi NNW 4.6 mph - 0.00 in   Overcast
6:47 PM 21.2 °F 12.6 °F 17.6 °F 86% 30.18 in 10.0 mi NNW 6.9 mph - 0.00 in   Overcast
6:54 PM 21.0 °F 12.4 °F 17.1 °F 85% 30.27 in 10.0 mi NNW 6.9 mph - 0.00 in   Overcast
7:54 PM 21.0 °F 12.4 °F 17.1 °F 85% 30.26 in 10.0 mi NNW 6.9 mph - N/A   Overcast
8:21 PM 21.2 °F 10.1 °F 17.6 °F 86% 30.16 in 10.0 mi North 10.4 mph - N/A   Overcast
8:37 PM 21.2 °F 10.9 °F 17.6 °F 86% 30.16 in 10.0 mi North 9.2 mph - N/A   Overcast
8:54 PM 19.9 °F 11.1 °F 17.1 °F 89% 30.25 in 10.0 mi North 6.9 mph - N/A   Overcast
9:01 PM 19.4 °F 10.4 °F 15.8 °F 86% 30.16 in 10.0 mi North 6.9 mph - N/A   Overcast
9:54 PM 21.0 °F 14.6 °F 17.1 °F 85% 30.23 in 10.0 mi WNW 4.6 mph - N/A   Overcast
10:54 PM 21.9 °F 13.4 °F 17.1 °F 82% 30.24 in 10.0 mi NNW 6.9 mph - N/A   Overcast
11:54 PM 21.9 °F 10.4 °F 15.1 °F 75% 30.23 in 8.0 mi North 11.5 mph 19.6 mph 0.00 in Snow Light Snow